Regional Weather Roundup
Issued by NWS Memphis, TN

Home | Current Version | Previous Version | Text Only | Print | Product List | Glossary On
Versions: 1 2 3 4 5 6 7 8 9 10 11 12 13 14 15 16 17 18 19 20 21 22 23 24 25 26 27 28 29 30 31 32 33 34 35 36 37 38 39 40 41 42 43 44 45 46 47 48 49 50
000
ASUS44 KMEG 171610
RWRMEG
MEMPHIS CWA HOURLY WEATHER ROUNDUP
NATIONAL WEATHER SERVICE MEMPHIS TN
1100 AM CDT THU APR 17 2014

...WEST TENNESSEE...

CITY           SKY/WX    TMP DP  RH WIND       PRES   REMARKS
MEMPHIS INTL   PTSUNNY   64  42  44 S9        30.30S
NWS MEMPHIS      N/A     63 N/A N/A MISG        N/A
JACKSON        SUNNY     61  39  44 S10       30.33R
LEXINGTON      SUNNY     61  36  39 S12       30.34S
SAVANNAH       SUNNY     60  37  42 S9        30.35R
DYERSBURG      SUNNY     61  39  44 S8        30.32S
UNION CITY     SUNNY     59  43  55 S13       30.31F
PARIS          SUNNY     59  38  45 S13       30.34S


...EASTERN ARKANSAS...

CITY           SKY/WX    TMP DP  RH WIND       PRES   REMARKS
JONESBORO      SUNNY     58  42  55 SE6       30.29S
WEST MEMPHIS   SUNNY     62  46  55 S13       30.29S
BATESVILLE     SUNNY     61  37  41 SW3       30.27F
NEWPORT        SUNNY     59  39  47 E9        30.30S
WALNUT RIDGE   SUNNY     59  39  47 S3        30.30S
BLYTHEVILLE    SUNNY     61  42  49 S10       30.31R
NW BLYTHEVILLE SUNNY     64  45  48 S9        30.31R
SEARCY         SUNNY     62  41  46 VRB6      30.29S
STUTTGART      MOSUNNY   61  43  51 SE3       30.27F
PINE BLUFF     MOSUNNY   62  42  47 E3        30.26S
MONTICELLO     MOSUNNY   63  44  50 CALM      30.24S


...NORTH MISSISSIPPI...

CITY           SKY/WX    TMP DP  RH WIND       PRES   REMARKS
TUPELO         SUNNY     60  43  53 S10       30.33R
OXFORD         SUNNY     59  41  51 S7        30.33S
OLIVE BRANCH   PTSUNNY   61  45  55 S8G16     30.31S
TUNICA         SUNNY     61  45  55 SE10      30.30F
CLARKSDALE       N/A     63  46  55 SE8       30.29F
CORINTH        SUNNY     63  39  42 S10       30.34R
GRENADA        MOSUNNY   61  46  59 E9        30.31S
GREENWOOD      MOSUNNY   62  46  55 VRB6      30.28F
COLUMBUS       SUNNY     63  44  50 E9        30.33R
STARKVILLE     FAIR      59  46  63 SE10      30.32S
GOLDEN TRIANGL SUNNY     59  43  55 SE9       30.36R


...SOUTHEAST MISSOURI...

CITY           SKY/WX    TMP DP  RH WIND       PRES   REMARKS
DONIPHAN         N/A     60  36  40 SW6         N/A
WEST PLAINS    MOSUNNY   58  35  42 S8        30.27R
POPLAR BLUFF   SUNNY     59  36  42 SW7       30.29S
CAPE GIRARDEAU SUNNY     60  39  45 S7        30.31S


...NORTHWEST ALABAMA...

CITY           SKY/WX    TMP DP  RH WIND       PRES   REMARKS
MUSCLE SHOALS  SUNNY     61  39  44 SE7       30.37S


...MIDDLE TENNESSEE...

CITY           SKY/WX    TMP DP  RH WIND       PRES   REMARKS
NASHVILLE      MOSUNNY   62  33  33 S14       30.39S
CLARKSVILLE    SUNNY     61  37  41 S12       30.35S
DICKSON        SUNNY     59  32  36 S9        30.35S
COLUMBIA       SUNNY     61  41  48 S6        30.36S
LEWISBURG      SUNNY     59  34  39 S7        30.38S


...WESTERN KENTUCKY...

CITY           SKY/WX    TMP DP  RH WIND       PRES   REMARKS
PADUCAH        SUNNY     63  40  42 SW10      30.31S
FORT CAMPBELL  SUNNY     63  36  36 S14       30.35R


...CENTRAL ARKANSAS...

CITY           SKY/WX    TMP DP  RH WIND       PRES   REMARKS
LITTLE ROCK    MOSUNNY   62  38  40 VRB6      30.27S


SKY/WX REPORTED AS FAIR MEANS FEW OR NO CLOUDS BELOW
12 THOUSAND FEET.




USA.gov is the U.S. government's official web portal to all federal, state and local government web resources and services.